Time,TemperatureF,DewpointF,PressureIn,WindDirection,WindDirectionDegrees,WindSpeedMPH,WindSpeedGustMPH,Humidity,HourlyPrecipIn,Conditions,Clouds,dailyrainin,SolarRadiationWatts/m^2,SoftwareType,DateUTC
2013-01-10 00:00:00,52.3,50.4,30.42,NNE,13,0.0,3.0,93,0.00,,,0.00,0.0,meteohub,2013-01-10 05:00:00,
2013-01-10 00:02:00,52.3,50.7,30.42,NNE,13,1.0,3.0,94,0.00,,,0.00,0.0,meteohub,2013-01-10 05:02:00,
2013-01-10 00:07:00,52.0,50.4,30.42,NNE,13,1.0,3.0,94,0.00,,,0.00,0.0,meteohub,2013-01-10 05:07:00,
2013-01-10 00:12:00,52.2,50.5,30.42,NNE,13,2.0,3.0,94,0.00,,,0.00,0.0,meteohub,2013-01-10 05:12:00,
2013-01-10 00:15:00,52.2,50.5,30.42,NNE,13,2.0,3.0,94,0.00,,,0.00,0.0,meteohub,2013-01-10 05:15:00,
2013-01-10 00:20:00,52.0,50.4,30.42,NNE,13,2.0,3.0,94,0.00,,,0.00,0.0,meteohub,2013-01-10 05:20:00,
2013-01-10 00:25:00,51.4,49.8,30.42,NNE,16,2.0,3.0,94,0.00,,,0.00,0.0,meteohub,2013-01-10 05:25:00,
2013-01-10 00:31:00,51.3,49.8,30.42,NNE,16,2.0,3.0,95,0.00,,,0.00,0.0,meteohub,2013-01-10 05:31:00,
2013-01-10 00:36:00,51.4,50.0,30.42,NNE,16,2.0,3.0,95,0.00,,,0.00,0.0,meteohub,2013-01-10 05:36:00,
2013-01-10 00:41:00,51.4,50.0,30.42,NNE,16,1.0,3.0,95,0.00,,,0.00,0.0,meteohub,2013-01-10 05:41:00,
2013-01-10 00:46:00,52.0,50.9,30.41,NNE,16,1.0,3.0,96,0.00,,,0.00,0.0,meteohub,2013-01-10 05:46:00,
2013-01-10 00:51:00,52.3,50.9,30.41,NNE,16,4.0,4.0,95,0.00,,,0.00,0.0,meteohub,2013-01-10 05:51:00,
2013-01-10 00:56:00,52.2,50.7,30.41,NNE,20,3.0,4.0,95,0.00,,,0.00,0.0,meteohub,2013-01-10 05:56:00,
2013-01-10 01:01:00,52.2,50.5,30.41,North,5,2.0,4.0,94,0.00,,,0.00,0.0,meteohub,2013-01-10 06:01:00,
2013-01-10 01:06:00,52.0,50.5,30.41,North,5,2.0,4.0,95,0.00,,,0.00,0.0,meteohub,2013-01-10 06:06:00,
2013-01-10 01:12:00,52.0,50.4,30.41,North,5,0.0,3.0,94,0.00,,,0.00,0.0,meteohub,2013-01-10 06:12:00,
2013-01-10 01:17:00,52.0,50.5,30.42,North,5,1.0,3.0,95,0.00,,,0.00,0.0,meteohub,2013-01-10 06:17:00,
2013-01-10 01:22:00,52.2,50.7,30.41,North,5,0.0,3.0,95,0.00,,,0.00,0.0,meteohub,2013-01-10 06:22:00,
2013-01-10 01:27:00,52.2,50.7,30.42,North,5,0.0,2.0,95,0.00,,,0.00,0.0,meteohub,2013-01-10 06:27:00,
2013-01-10 01:32:00,51.8,50.2,30.42,North,5,0.0,2.0,94,0.00,,,0.00,0.0,meteohub,2013-01-10 06:32:00,
2013-01-10 01:37:00,51.3,49.6,30.42,North,5,0.0,2.0,94,0.00,,,0.00,0.0,meteohub,2013-01-10 06:37:00,
2013-01-10 01:42:00,51.3,49.8,30.42,North,5,1.0,2.0,95,0.00,,,0.00,0.0,meteohub,2013-01-10 06:42:00,
2013-01-10 01:47:00,51.4,50.0,30.42,North,5,1.0,2.0,95,0.00,,,0.00,0.0,meteohub,2013-01-10 06:47:00,
2013-01-10 01:52:00,51.3,49.8,30.42,North,5,0.0,2.0,95,0.00,,,0.00,0.0,meteohub,2013-01-10 06:52:00,
2013-01-10 01:57:00,51.4,50.0,30.42,North,5,1.0,2.0,95,0.00,,,0.00,0.0,meteohub,2013-01-10 06:57:00,
2013-01-10 02:02:00,51.1,49.6,30.42,North,5,2.0,2.0,95,0.00,,,0.00,0.0,meteohub,2013-01-10 07:02:00,
2013-01-10 02:07:00,50.7,49.3,30.41,North,5,2.0,3.0,95,0.00,,,0.00,0.0,meteohub,2013-01-10 07:07:00,
2013-01-10 02:12:00,50.9,49.5,30.41,North,5,1.0,3.0,95,0.00,,,0.00,0.0,meteohub,2013-01-10 07:12:00,
2013-01-10 02:17:00,50.7,49.3,30.41,North,5,2.0,3.0,95,0.00,,,0.00,0.0,meteohub,2013-01-10 07:17:00,
2013-01-10 02:22:00,50.7,49.3,30.41,North,5,2.0,3.0,95,0.00,,,0.00,0.0,meteohub,2013-01-10 07:22:00,
2013-01-10 02:27:00,50.9,49.5,30.41,North,5,2.0,3.0,95,0.00,,,0.00,0.0,meteohub,2013-01-10 07:27:00,
2013-01-10 02:32:00,51.1,50.0,30.41,North,5,0.0,3.0,96,0.00,,,0.00,0.0,meteohub,2013-01-10 07:32:00,
2013-01-10 02:37:00,50.9,49.5,30.41,North,5,2.0,3.0,95,0.00,,,0.00,0.0,meteohub,2013-01-10 07:37:00,
2013-01-10 02:42:00,50.5,49.1,30.42,North,5,3.0,3.0,95,0.00,,,0.00,0.0,meteohub,2013-01-10 07:42:00,
2013-01-10 02:47:00,50.5,49.1,30.41,North,5,2.0,3.0,95,0.00,,,0.00,0.0,meteohub,2013-01-10 07:47:00,
2013-01-10 02:52:00,50.5,49.5,30.42,North,5,0.0,3.0,96,0.00,,,0.00,0.0,meteohub,2013-01-10 07:52:00,
2013-01-10 02:57:00,51.3,50.2,30.42,North,5,0.0,3.0,96,0.00,,,0.00,0.0,meteohub,2013-01-10 07:57:00,
2013-01-10 03:02:00,51.3,49.8,30.42,North,5,0.0,3.0,95,0.00,,,0.00,0.0,meteohub,2013-01-10 08:02:00,
2013-01-10 03:07:00,51.4,49.8,30.41,North,5,1.0,2.0,94,0.00,,,0.00,0.0,meteohub,2013-01-10 08:07:00,
2013-01-10 03:12:00,51.8,50.2,30.41,North,5,0.0,2.0,94,0.00,,,0.00,0.0,meteohub,2013-01-10 08:12:00,
2013-01-10 03:17:00,52.3,50.0,30.41,North,5,0.0,2.0,92,0.00,,,0.00,0.0,meteohub,2013-01-10 08:17:00,
2013-01-10 03:22:00,52.5,49.6,30.41,North,5,0.0,2.0,90,0.00,,,0.00,0.0,meteohub,2013-01-10 08:22:00,
2013-01-10 03:28:00,52.5,49.6,30.41,North,5,0.0,1.0,90,0.00,,,0.00,0.0,meteohub,2013-01-10 08:28:00,
2013-01-10 03:33:00,52.5,49.5,30.41,North,5,0.0,0.0,89,0.00,,,0.00,0.0,meteohub,2013-01-10 08:33:00,
2013-01-10 03:38:00,52.3,49.3,30.41,North,5,0.0,1.0,89,0.00,,,0.00,0.0,meteohub,2013-01-10 08:38:00,
2013-01-10 03:43:00,52.2,49.3,30.41,North,5,0.0,1.0,90,0.00,,,0.00,0.0,meteohub,2013-01-10 08:43:00,
2013-01-10 03:48:00,52.2,49.3,30.41,North,5,0.0,1.0,90,0.00,,,0.00,0.0,meteohub,2013-01-10 08:48:00,
2013-01-10 03:53:00,52.3,49.3,30.41,North,5,0.0,1.0,89,0.00,,,0.00,0.0,meteohub,2013-01-10 08:53:00,
2013-01-10 03:58:00,52.2,49.1,30.40,North,5,1.0,1.0,89,0.00,,,0.00,0.0,meteohub,2013-01-10 08:58:00,
2013-01-10 04:03:00,52.2,49.3,30.40,North,5,0.0,2.0,90,0.00,,,0.00,0.0,meteohub,2013-01-10 09:03:00,
2013-01-10 04:08:00,52.3,49.3,30.40,North,5,0.0,2.0,89,0.00,,,0.00,0.0,meteohub,2013-01-10 09:08:00,
2013-01-10 04:13:00,52.2,49.1,30.40,North,5,1.0,2.0,89,0.00,,,0.00,0.0,meteohub,2013-01-10 09:13:00,
2013-01-10 04:18:00,52.3,49.3,30.41,North,5,0.0,1.0,89,0.00,,,0.00,0.0,meteohub,2013-01-10 09:18:00,
2013-01-10 04:23:00,52.2,49.3,30.41,North,5,0.0,2.0,90,0.00,,,0.00,0.0,meteohub,2013-01-10 09:23:00,
2013-01-10 04:28:00,52.2,49.3,30.40,North,5,0.0,2.0,90,0.00,,,0.00,0.0,meteohub,2013-01-10 09:28:00,
2013-01-10 04:33:00,52.0,49.1,30.40,North,5,1.0,2.0,90,0.00,,,0.00,0.0,meteohub,2013-01-10 09:33:00,
2013-01-10 04:38:00,52.2,49.3,30.40,North,5,1.0,2.0,90,0.00,,,0.00,0.0,meteohub,2013-01-10 09:38:00,
2013-01-10 04:43:00,52.3,49.3,30.40,North,5,0.0,2.0,89,0.00,,,0.00,0.0,meteohub,2013-01-10 09:43:00,
2013-01-10 04:49:00,52.3,48.9,30.39,North,5,0.0,2.0,88,0.00,,,0.00,0.0,meteohub,2013-01-10 09:49:00,
2013-01-10 04:54:00,52.5,49.1,30.39,North,5,1.0,1.0,88,0.00,,,0.00,0.0,meteohub,2013-01-10 09:54:00,
2013-01-10 04:59:00,52.5,48.7,30.39,North,5,0.0,2.0,87,0.00,,,0.00,0.0,meteohub,2013-01-10 09:59:00,
2013-01-10 05:04:00,52.5,48.7,30.39,North,5,0.0,2.0,87,0.00,,,0.00,0.0,meteohub,2013-01-10 10:04:00,
2013-01-10 05:09:00,53.1,49.3,30.39,North,5,0.0,2.0,87,0.00,,,0.00,0.0,meteohub,2013-01-10 10:09:00,
2013-01-10 05:14:00,53.1,48.9,30.39,North,5,0.0,1.0,86,0.00,,,0.00,0.0,meteohub,2013-01-10 10:14:00,
2013-01-10 05:19:00,52.3,48.6,30.38,North,5,2.0,2.0,87,0.00,,,0.00,0.0,meteohub,2013-01-10 10:19:00,
2013-01-10 05:24:00,52.0,48.6,30.38,North,5,1.0,3.0,88,0.00,,,0.00,0.0,meteohub,2013-01-10 10:24:00,
2013-01-10 05:29:00,52.0,48.9,30.38,North,5,1.0,3.0,89,0.00,,,0.00,0.0,meteohub,2013-01-10 10:29:00,
2013-01-10 05:34:00,52.0,48.9,30.38,North,5,1.0,3.0,89,0.00,,,0.00,0.0,meteohub,2013-01-10 10:34:00,
2013-01-10 05:39:00,52.2,49.1,30.39,North,5,0.0,2.0,89,0.00,,,0.00,0.0,meteohub,2013-01-10 10:39:00,
2013-01-10 05:44:00,52.7,49.5,30.39,North,5,0.0,2.0,89,0.00,,,0.00,0.0,meteohub,2013-01-10 10:44:00,
2013-01-10 05:49:00,53.1,49.6,30.39,North,5,0.0,2.0,88,0.00,,,0.00,0.0,meteohub,2013-01-10 10:49:00,
2013-01-10 05:54:00,53.1,49.6,30.40,North,5,0.0,1.0,88,0.00,,,0.00,0.0,meteohub,2013-01-10 10:54:00,
2013-01-10 05:59:00,53.2,49.8,30.40,North,5,0.0,0.0,88,0.00,,,0.00,0.0,meteohub,2013-01-10 10:59:00,
2013-01-10 06:04:00,53.2,49.8,30.40,North,5,0.0,0.0,88,0.00,,,0.00,0.0,meteohub,2013-01-10 11:04:00,
2013-01-10 06:09:00,53.1,49.6,30.40,North,5,0.0,0.0,88,0.00,,,0.00,0.0,meteohub,2013-01-10 11:09:00,
2013-01-10 06:14:00,53.1,49.6,30.40,North,5,0.0,0.0,88,0.00,,,0.00,0.0,meteohub,2013-01-10 11:14:00,
2013-01-10 06:20:00,53.1,49.3,30.40,North,5,0.0,0.0,87,0.00,,,0.00,0.0,meteohub,2013-01-10 11:20:00,
2013-01-10 06:25:00,52.9,49.1,30.40,North,5,0.0,0.0,87,0.00,,,0.00,0.0,meteohub,2013-01-10 11:25:00,
2013-01-10 06:30:00,52.9,49.1,30.40,North,5,1.0,1.0,87,0.00,,,0.00,0.0,meteohub,2013-01-10 11:30:00,
2013-01-10 06:35:00,52.7,48.9,30.40,North,5,0.0,1.0,87,0.00,,,0.00,0.0,meteohub,2013-01-10 11:35:00,
2013-01-10 06:40:00,52.7,48.9,30.40,North,5,0.0,2.0,87,0.00,,,0.00,0.0,meteohub,2013-01-10 11:40:00,
2013-01-10 06:45:00,53.1,48.9,30.40,North,5,0.0,2.0,86,0.00,,,0.00,0.0,meteohub,2013-01-10 11:45:00,
2013-01-10 06:50:00,53.1,48.9,30.40,North,5,1.0,2.0,86,0.00,,,0.00,0.0,meteohub,2013-01-10 11:50:00,
2013-01-10 06:55:00,52.9,49.1,30.40,North,5,2.0,2.0,87,0.00,,,0.00,0.0,meteohub,2013-01-10 11:55:00,
2013-01-10 07:00:00,52.9,49.1,30.40,North,5,2.0,2.0,87,0.00,,,0.00,0.0,meteohub,2013-01-10 12:00:00,
2013-01-10 07:05:00,52.5,48.7,30.40,North,5,0.0,2.0,87,0.00,,,0.00,0.0,meteohub,2013-01-10 12:05:00,
2013-01-10 07:10:00,52.7,49.3,30.40,North,5,1.0,2.0,88,0.00,,,0.00,0.0,meteohub,2013-01-10 12:10:00,
2013-01-10 07:15:00,52.5,49.1,30.40,North,5,2.0,2.0,88,0.00,,,0.00,0.0,meteohub,2013-01-10 12:15:00,
2013-01-10 07:20:00,52.5,49.1,30.40,North,5,1.0,2.0,88,0.00,,,0.00,0.0,meteohub,2013-01-10 12:20:00,
2013-01-10 07:26:00,52.5,49.5,30.40,North,5,1.0,2.0,89,0.00,,,0.00,0.0,meteohub,2013-01-10 12:26:00,
2013-01-10 07:31:00,52.5,49.1,30.40,North,5,2.0,3.0,88,0.00,,,0.00,0.0,meteohub,2013-01-10 12:31:00,
2013-01-10 07:36:00,52.2,48.7,30.40,North,5,2.0,3.0,88,0.00,,,0.00,0.0,meteohub,2013-01-10 12:36:00,
2013-01-10 07:41:00,52.2,48.7,30.40,North,5,2.0,3.0,88,0.00,,,0.00,0.0,meteohub,2013-01-10 12:41:00,
2013-01-10 07:46:00,52.2,48.7,30.41,North,5,1.0,3.0,88,0.00,,,0.00,0.0,meteohub,2013-01-10 12:46:00,
2013-01-10 07:51:00,52.0,48.9,30.41,North,5,2.0,3.0,89,0.00,,,0.00,7.0,meteohub,2013-01-10 12:51:00,
2013-01-10 07:56:00,51.8,48.7,30.41,North,5,1.0,3.0,89,0.00,,,0.00,11.0,meteohub,2013-01-10 12:56:00,
2013-01-10 08:01:00,52.2,49.1,30.41,North,5,2.0,3.0,89,0.00,,,0.00,14.0,meteohub,2013-01-10 13:01:00,
2013-01-10 08:06:00,52.2,49.1,30.42,North,5,2.0,3.0,89,0.00,,,0.00,18.0,meteohub,2013-01-10 13:06:00,
2013-01-10 08:11:00,52.0,48.9,30.42,North,5,2.0,3.0,89,0.00,,,0.00,23.0,meteohub,2013-01-10 13:11:00,
2013-01-10 08:16:00,51.8,48.9,30.42,North,5,2.0,3.0,90,0.00,,,0.00,28.0,meteohub,2013-01-10 13:16:00,
2013-01-10 08:21:00,52.0,49.5,30.42,North,5,1.0,3.0,91,0.00,,,0.00,33.0,meteohub,2013-01-10 13:21:00,
2013-01-10 08:27:00,52.5,49.6,30.43,North,5,1.0,3.0,90,0.00,,,0.00,39.0,meteohub,2013-01-10 13:27:00,
2013-01-10 08:32:00,52.9,50.0,30.43,North,5,2.0,3.0,90,0.00,,,0.00,46.0,meteohub,2013-01-10 13:32:00,
2013-01-10 08:37:00,53.1,50.2,30.43,North,5,0.0,2.0,90,0.00,,,0.00,53.0,meteohub,2013-01-10 13:37:00,
2013-01-10 08:42:00,53.2,50.0,30.43,North,5,1.0,2.0,89,0.00,,,0.00,60.0,meteohub,2013-01-10 13:42:00,
2013-01-10 08:47:00,53.4,50.2,30.43,North,5,0.0,2.0,89,0.00,,,0.00,67.0,meteohub,2013-01-10 13:47:00,
2013-01-10 08:52:00,53.6,50.4,30.43,North,5,2.0,2.0,89,0.00,,,0.00,76.0,meteohub,2013-01-10 13:52:00,
2013-01-10 08:57:00,53.8,50.5,30.43,North,5,1.0,2.0,89,0.00,,,0.00,83.0,meteohub,2013-01-10 13:57:00,
2013-01-10 09:02:00,54.0,50.7,30.43,North,5,2.0,2.0,89,0.00,,,0.00,84.0,meteohub,2013-01-10 14:02:00,
2013-01-10 09:07:00,54.3,51.1,30.43,North,5,0.0,2.0,89,0.00,,,0.00,90.0,meteohub,2013-01-10 14:07:00,
2013-01-10 09:12:00,54.7,51.3,30.43,North,5,1.0,2.0,88,0.00,,,0.00,91.0,meteohub,2013-01-10 14:12:00,
2013-01-10 09:17:00,54.9,51.4,30.43,North,5,0.0,2.0,88,0.00,,,0.00,95.0,meteohub,2013-01-10 14:17:00,
2013-01-10 09:22:00,55.0,51.3,30.43,North,5,0.0,2.0,87,0.00,,,0.00,98.0,meteohub,2013-01-10 14:22:00,
2013-01-10 09:27:00,55.2,51.8,30.43,North,5,0.0,2.0,88,0.00,,,0.00,104.0,meteohub,2013-01-10 14:27:00,
2013-01-10 09:32:00,55.6,51.8,30.43,North,5,0.0,1.0,87,0.00,,,0.00,120.0,meteohub,2013-01-10 14:32:00,
2013-01-10 09:37:00,55.8,51.6,30.44,North,5,0.0,1.0,86,0.00,,,0.00,130.0,meteohub,2013-01-10 14:37:00,
2013-01-10 09:42:00,55.9,51.8,30.43,North,5,1.0,1.0,86,0.00,,,0.00,202.0,meteohub,2013-01-10 14:42:00,
2013-01-10 09:47:00,56.5,51.6,30.43,North,5,1.0,1.0,84,0.00,,,0.00,207.0,meteohub,2013-01-10 14:47:00,
2013-01-10 09:52:00,57.0,51.3,30.44,ESE,117,2.0,2.0,81,0.00,,,0.00,190.0,meteohub,2013-01-10 14:52:00,
2013-01-10 09:57:00,57.2,51.4,30.44,SE,136,2.0,3.0,81,0.00,,,0.00,195.0,meteohub,2013-01-10 14:57:00,
2013-01-10 10:02:00,57.4,50.9,30.44,South,175,0.0,3.0,79,0.00,,,0.00,167.0,meteohub,2013-01-10 15:02:00,
2013-01-10 10:07:00,57.4,51.3,30.44,ESE,105,0.0,3.0,80,0.00,,,0.00,171.0,meteohub,2013-01-10 15:07:00,
2013-01-10 10:12:00,57.6,51.4,30.44,SE,130,0.0,3.0,80,0.00,,,0.00,148.0,meteohub,2013-01-10 15:12:00,
2013-01-10 10:17:00,57.7,50.9,30.44,SE,130,0.0,3.0,78,0.00,,,0.00,162.0,meteohub,2013-01-10 15:17:00,
2013-01-10 10:22:00,57.7,50.9,30.44,ESE,102,0.0,3.0,78,0.00,,,0.00,153.0,meteohub,2013-01-10 15:22:00,
2013-01-10 10:27:00,57.6,50.4,30.44,ESE,105,0.0,3.0,77,0.00,,,0.00,171.0,meteohub,2013-01-10 15:27:00,
2013-01-10 10:32:00,57.6,50.4,30.44,SSW,209,2.0,3.0,77,0.00,,,0.00,176.0,meteohub,2013-01-10 15:32:00,
2013-01-10 10:37:00,57.7,50.2,30.44,SSE,159,1.0,3.0,76,0.00,,,0.00,204.0,meteohub,2013-01-10 15:37:00,
2013-01-10 10:42:00,57.6,49.3,30.44,ESE,119,0.0,4.0,74,0.00,,,0.00,188.0,meteohub,2013-01-10 15:42:00,
2013-01-10 10:47:00,57.9,50.0,30.43,SSW,204,1.0,4.0,75,0.00,,,0.00,206.0,meteohub,2013-01-10 15:47:00,
2013-01-10 10:52:00,58.3,50.4,30.44,SW,223,2.0,4.0,75,0.00,,,0.00,218.0,meteohub,2013-01-10 15:52:00,
2013-01-10 10:57:00,58.6,50.4,30.43,SW,219,1.0,3.0,74,0.00,,,0.00,211.0,meteohub,2013-01-10 15:57:00,
2013-01-10 11:02:00,58.5,50.5,30.44,SW,226,2.0,3.0,75,0.00,,,0.00,181.0,meteohub,2013-01-10 16:02:00,
2013-01-10 11:07:00,58.1,49.8,30.43,SW,225,1.0,3.0,74,0.00,,,0.00,197.0,meteohub,2013-01-10 16:07:00,
2013-01-10 11:12:00,57.9,49.6,30.43,SSE,153,0.0,3.0,74,0.00,,,0.00,216.0,meteohub,2013-01-10 16:12:00,
2013-01-10 11:17:00,58.1,49.5,30.43,SSE,165,1.0,3.0,73,0.00,,,0.00,221.0,meteohub,2013-01-10 16:17:00,
2013-01-10 11:22:00,57.9,49.6,30.43,SSE,165,2.0,3.0,74,0.00,,,0.00,225.0,meteohub,2013-01-10 16:22:00,
2013-01-10 11:27:00,58.3,50.0,30.43,SSE,165,0.0,3.0,74,0.00,,,0.00,258.0,meteohub,2013-01-10 16:27:00,
2013-01-10 11:32:00,58.5,49.5,30.43,East,81,3.0,3.0,72,0.00,,,0.00,202.0,meteohub,2013-01-10 16:32:00,
2013-01-10 11:37:00,58.5,49.1,30.43,ESE,121,1.0,3.0,71,0.00,,,0.00,250.0,meteohub,2013-01-10 16:37:00,
2013-01-10 11:42:00,58.6,50.0,30.42,SE,126,0.0,3.0,73,0.00,,,0.00,265.0,meteohub,2013-01-10 16:42:00,
2013-01-10 11:47:00,59.4,50.4,30.42,East,99,2.0,3.0,72,0.00,,,0.00,343.0,meteohub,2013-01-10 16:47:00,
2013-01-10 11:52:00,59.4,50.7,30.41,SSW,204,0.0,4.0,73,0.00,,,0.00,376.0,meteohub,2013-01-10 16:52:00,
2013-01-10 11:57:00,60.4,50.5,30.41,SE,134,0.0,4.0,70,0.00,,,0.00,357.0,meteohub,2013-01-10 16:57:00,
2013-01-10 12:02:00,60.4,51.4,30.41,SE,127,0.0,3.0,72,0.00,,,0.00,311.0,meteohub,2013-01-10 17:02:00,
2013-01-10 12:07:00,61.0,51.1,30.40,WSW,239,2.0,4.0,70,0.00,,,0.00,496.0,meteohub,2013-01-10 17:07:00,
2013-01-10 12:12:00,60.3,50.9,30.40,South,175,3.0,4.0,71,0.00,,,0.00,251.0,meteohub,2013-01-10 17:12:00,
2013-01-10 12:17:00,60.6,50.7,30.40,SW,221,0.0,4.0,70,0.00,,,0.00,285.0,meteohub,2013-01-10 17:17:00,
2013-01-10 12:22:00,61.0,50.4,30.40,SSE,155,1.0,5.0,68,0.00,,,0.00,239.0,meteohub,2013-01-10 17:22:00,
2013-01-10 12:27:00,60.3,50.4,30.39,SW,234,0.0,5.0,70,0.00,,,0.00,223.0,meteohub,2013-01-10 17:27:00,
2013-01-10 12:32:00,60.8,50.9,30.39,ESE,123,0.0,5.0,70,0.00,,,0.00,218.0,meteohub,2013-01-10 17:32:00,
2013-01-10 12:38:00,60.4,50.2,30.39,South,190,0.0,5.0,69,0.00,,,0.00,264.0,meteohub,2013-01-10 17:38:00,
2013-01-10 12:43:00,60.3,50.4,30.39,SW,232,0.0,5.0,70,0.00,,,0.00,232.0,meteohub,2013-01-10 17:43:00,
2013-01-10 12:48:00,60.1,50.2,30.39,SSW,204,5.0,6.0,70,0.00,,,0.00,195.0,meteohub,2013-01-10 17:48:00,
2013-01-10 12:53:00,59.7,50.7,30.38,SSW,207,0.0,6.0,72,0.00,,,0.00,200.0,meteohub,2013-01-10 17:53:00,
2013-01-10 12:58:00,60.1,50.7,30.38,SW,219,1.0,6.0,71,0.00,,,0.00,229.0,meteohub,2013-01-10 17:58:00,
2013-01-10 13:03:00,60.4,50.2,30.38,South,188,1.0,5.0,69,0.00,,,0.00,306.0,meteohub,2013-01-10 18:03:00,
2013-01-10 13:08:00,61.0,50.7,30.37,SSE,160,1.0,4.0,69,0.00,,,0.00,373.0,meteohub,2013-01-10 18:08:00,
2013-01-10 13:13:00,60.8,50.2,30.37,SE,144,2.0,6.0,68,0.00,,,0.00,295.0,meteohub,2013-01-10 18:13:00,
2013-01-10 13:18:00,61.7,51.4,30.37,South,185,2.0,6.0,69,0.00,,,0.00,533.0,meteohub,2013-01-10 18:18:00,
2013-01-10 13:23:00,61.3,51.1,30.36,SW,221,2.0,6.0,69,0.00,,,0.00,260.0,meteohub,2013-01-10 18:23:00,
2013-01-10 13:29:00,60.6,50.7,30.36,SE,140,2.0,5.0,70,0.00,,,0.00,425.0,meteohub,2013-01-10 18:29:00,
2013-01-10 13:34:00,60.8,50.5,30.36,SSW,212,1.0,7.0,69,0.00,,,0.00,267.0,meteohub,2013-01-10 18:34:00,
2013-01-10 13:39:00,60.6,50.7,30.35,SSW,202,1.0,7.0,70,0.00,,,0.00,250.0,meteohub,2013-01-10 18:39:00,
2013-01-10 13:44:00,60.1,51.1,30.35,SE,134,3.0,7.0,72,0.00,,,0.00,188.0,meteohub,2013-01-10 18:44:00,
2013-01-10 13:49:00,60.1,51.1,30.35,SSW,200,0.0,4.0,72,0.00,,,0.00,142.0,meteohub,2013-01-10 18:49:00,
2013-01-10 13:54:00,59.7,51.1,30.35,SW,229,2.0,4.0,73,0.00,,,0.00,142.0,meteohub,2013-01-10 18:54:00,
2013-01-10 13:59:00,60.1,51.1,30.35,South,170,0.0,4.0,72,0.00,,,0.00,278.0,meteohub,2013-01-10 18:59:00,
2013-01-10 14:04:00,60.3,51.3,30.35,South,191,1.0,4.0,72,0.00,,,0.00,199.0,meteohub,2013-01-10 19:04:00,
2013-01-10 14:09:00,59.5,50.5,30.35,SSW,212,2.0,5.0,72,0.00,,,0.00,221.0,meteohub,2013-01-10 19:09:00,
2013-01-10 14:14:00,59.7,51.1,30.35,SSE,155,0.0,5.0,73,0.00,,,0.00,176.0,meteohub,2013-01-10 19:14:00,
2013-01-10 14:19:00,59.4,50.7,30.35,SW,227,2.0,5.0,73,0.00,,,0.00,169.0,meteohub,2013-01-10 19:19:00,
2013-01-10 14:25:00,59.4,50.4,30.35,SW,234,1.0,4.0,72,0.00,,,0.00,142.0,meteohub,2013-01-10 19:25:00,
2013-01-10 14:30:00,59.4,50.7,30.35,SSE,151,1.0,5.0,73,0.00,,,0.00,144.0,meteohub,2013-01-10 19:30:00,
2013-01-10 14:35:00,59.2,50.5,30.35,South,175,0.0,5.0,73,0.00,,,0.00,202.0,meteohub,2013-01-10 19:35:00,
2013-01-10 14:40:00,59.2,50.5,30.35,SSW,211,2.0,5.0,73,0.00,,,0.00,144.0,meteohub,2013-01-10 19:40:00,
2013-01-10 14:45:00,58.8,50.5,30.35,SSE,157,2.0,4.0,74,0.00,,,0.00,135.0,meteohub,2013-01-10 19:45:00,
2013-01-10 14:50:00,58.6,50.4,30.35,SSW,213,2.0,6.0,74,0.00,,,0.00,134.0,meteohub,2013-01-10 19:50:00,
2013-01-10 14:55:00,58.8,50.2,30.35,SSW,205,0.0,6.0,73,0.00,,,0.00,142.0,meteohub,2013-01-10 19:55:00,
2013-01-10 15:00:00,58.8,50.2,30.35,SSE,148,0.0,6.0,73,0.00,,,0.00,151.0,meteohub,2013-01-10 20:00:00,
2013-01-10 15:05:00,59.2,50.9,30.35,SW,217,1.0,6.0,74,0.00,,,0.00,223.0,meteohub,2013-01-10 20:05:00,
2013-01-10 15:10:00,59.5,50.9,30.34,SSW,208,0.0,6.0,73,0.00,,,0.00,200.0,meteohub,2013-01-10 20:10:00,
2013-01-10 15:15:00,59.4,50.4,30.34,SW,216,2.0,4.0,72,0.00,,,0.00,190.0,meteohub,2013-01-10 20:15:00,
2013-01-10 15:20:00,59.2,50.2,30.34,SE,130,2.0,4.0,72,0.00,,,0.00,125.0,meteohub,2013-01-10 20:20:00,
2013-01-10 15:25:00,58.6,50.4,30.35,WSW,244,0.0,4.0,74,0.00,,,0.00,109.0,meteohub,2013-01-10 20:25:00,
2013-01-10 15:30:00,58.6,50.4,30.35,SSE,159,3.0,4.0,74,0.00,,,0.00,116.0,meteohub,2013-01-10 20:30:00,
2013-01-10 15:35:00,58.8,50.5,30.35,SSE,167,1.0,3.0,74,0.00,,,0.00,118.0,meteohub,2013-01-10 20:35:00,
2013-01-10 15:40:00,58.6,50.4,30.35,SW,235,0.0,4.0,74,0.00,,,0.00,120.0,meteohub,2013-01-10 20:40:00,
2013-01-10 15:45:00,59.2,51.3,30.35,SW,229,2.0,4.0,75,0.00,,,0.00,132.0,meteohub,2013-01-10 20:45:00,
2013-01-10 15:51:00,59.2,50.9,30.35,SSE,154,1.0,4.0,74,0.00,,,0.00,121.0,meteohub,2013-01-10 20:51:00,
2013-01-10 15:56:00,58.8,50.5,30.35,SE,127,3.0,4.0,74,0.00,,,0.00,162.0,meteohub,2013-01-10 20:56:00,
2013-01-10 16:01:00,59.0,51.1,30.35,SW,219,3.0,4.0,75,0.00,,,0.00,128.0,meteohub,2013-01-10 21:01:00,
2013-01-10 16:06:00,58.8,51.3,30.35,SSW,199,1.0,5.0,76,0.00,,,0.00,120.0,meteohub,2013-01-10 21:06:00,
2013-01-10 16:11:00,59.2,50.9,30.35,ESE,115,0.0,5.0,74,0.00,,,0.00,128.0,meteohub,2013-01-10 21:11:00,
2013-01-10 16:16:00,59.5,51.3,30.35,SSE,147,1.0,6.0,74,0.00,,,0.00,141.0,meteohub,2013-01-10 21:16:00,
2013-01-10 16:21:00,59.5,51.3,30.35,SSW,206,0.0,6.0,74,0.00,,,0.00,100.0,meteohub,2013-01-10 21:21:00,
2013-01-10 16:26:00,59.5,51.3,30.34,SW,223,2.0,6.0,74,0.00,,,0.00,160.0,meteohub,2013-01-10 21:26:00,
2013-01-10 16:31:00,59.4,51.4,30.35,SW,232,2.0,5.0,75,0.00,,,0.00,127.0,meteohub,2013-01-10 21:31:00,
2013-01-10 16:36:00,59.2,51.3,30.35,ESE,122,3.0,5.0,75,0.00,,,0.00,83.0,meteohub,2013-01-10 21:36:00,
2013-01-10 16:41:00,58.8,51.3,30.35,South,188,3.0,5.0,76,0.00,,,0.00,95.0,meteohub,2013-01-10 21:41:00,
2013-01-10 16:46:00,58.1,50.9,30.36,SSE,148,1.0,5.0,77,0.00,,,0.00,47.0,meteohub,2013-01-10 21:46:00,
2013-01-10 16:51:00,57.7,50.9,30.36,SW,217,1.0,5.0,78,0.00,,,0.00,40.0,meteohub,2013-01-10 21:51:00,
2013-01-10 16:57:00,57.6,51.1,30.35,WSW,237,0.0,3.0,79,0.00,,,0.00,30.0,meteohub,2013-01-10 21:57:00,
2013-01-10 17:02:00,57.2,50.7,30.36,SW,217,2.0,4.0,79,0.00,,,0.00,19.0,meteohub,2013-01-10 22:02:00,
2013-01-10 17:07:00,56.8,50.7,30.36,SE,140,0.0,4.0,80,0.00,,,0.00,16.0,meteohub,2013-01-10 22:07:00,
2013-01-10 17:12:00,56.7,50.5,30.35,SE,138,1.0,4.0,80,0.00,,,0.00,11.0,meteohub,2013-01-10 22:12:00,
2013-01-10 17:17:00,56.5,50.7,30.35,SE,144,1.0,4.0,81,0.00,,,0.00,5.0,meteohub,2013-01-10 22:17:00,
2013-01-10 17:22:00,56.3,50.5,30.35,SSW,200,0.0,4.0,81,0.00,,,0.00,0.0,meteohub,2013-01-10 22:22:00,
2013-01-10 17:27:00,56.1,50.4,30.35,SSE,161,1.0,4.0,81,0.00,,,0.00,0.0,meteohub,2013-01-10 22:27:00,
2013-01-10 17:32:00,55.9,50.2,30.35,SSW,198,2.0,4.0,81,0.00,,,0.00,0.0,meteohub,2013-01-10 22:32:00,
2013-01-10 17:37:00,55.8,50.4,30.35,SSE,153,1.0,4.0,82,0.00,,,0.00,0.0,meteohub,2013-01-10 22:37:00,
2013-01-10 17:42:00,55.8,50.4,30.35,South,175,1.0,5.0,82,0.00,,,0.00,0.0,meteohub,2013-01-10 22:42:00,
2013-01-10 17:47:00,55.6,50.2,30.35,South,175,0.0,5.0,82,0.00,,,0.00,0.0,meteohub,2013-01-10 22:47:00,
2013-01-10 17:52:00,55.6,50.2,30.35,South,182,0.0,5.0,82,0.00,,,0.00,0.0,meteohub,2013-01-10 22:52:00,
2013-01-10 17:57:00,55.2,50.2,30.34,South,182,0.0,3.0,83,0.00,,,0.00,0.0,meteohub,2013-01-10 22:57:00,
2013-01-10 18:02:00,55.2,50.2,30.34,WSW,237,0.0,3.0,83,0.00,,,0.00,0.0,meteohub,2013-01-10 23:02:00,
2013-01-10 18:07:00,55.0,50.0,30.34,WSW,237,0.0,2.0,83,0.00,,,0.00,0.0,meteohub,2013-01-10 23:07:00,
2013-01-10 18:12:00,55.0,50.0,30.34,WSW,237,0.0,3.0,83,0.00,,,0.00,0.0,meteohub,2013-01-10 23:12:00,
2013-01-10 18:17:00,55.0,50.0,30.34,WSW,237,0.0,3.0,83,0.00,,,0.00,0.0,meteohub,2013-01-10 23:17:00,
2013-01-10 18:22:00,55.0,50.0,30.34,WSW,237,0.0,3.0,83,0.00,,,0.00,0.0,meteohub,2013-01-10 23:22:00,
2013-01-10 18:27:00,55.0,50.4,30.34,WSW,237,0.0,3.0,84,0.00,,,0.00,0.0,meteohub,2013-01-10 23:27:00,
2013-01-10 18:32:00,54.9,50.2,30.34,WSW,237,0.0,1.0,84,0.00,,,0.00,0.0,meteohub,2013-01-10 23:32:00,
2013-01-10 18:37:00,54.9,50.2,30.35,SW,236,0.0,1.0,84,0.00,,,0.00,0.0,meteohub,2013-01-10 23:37:00,
2013-01-10 18:42:00,54.7,50.0,30.35,SW,236,0.0,2.0,84,0.00,,,0.00,0.0,meteohub,2013-01-10 23:42:00,
2013-01-10 18:47:00,54.5,49.8,30.35,SE,130,0.0,2.0,84,0.00,,,0.00,0.0,meteohub,2013-01-10 23:47:00,
2013-01-10 18:52:00,54.3,49.6,30.35,East,89,2.0,4.0,84,0.00,,,0.00,0.0,meteohub,2013-01-10 23:52:00,
2013-01-10 18:57:00,54.3,49.6,30.35,ENE,63,0.0,5.0,84,0.00,,,0.00,0.0,meteohub,2013-01-10 23:57:00,
2013-01-10 19:02:00,54.1,49.8,30.35,East,84,0.0,5.0,85,0.00,,,0.00,0.0,meteohub,2013-01-11 00:02:00,
2013-01-10 19:07:00,54.1,49.8,30.34,South,187,2.0,5.0,85,0.00,,,0.00,0.0,meteohub,2013-01-11 00:07:00,
2013-01-10 19:12:00,54.1,49.8,30.34,SSW,207,0.0,4.0,85,0.00,,,0.00,0.0,meteohub,2013-01-11 00:12:00,
2013-01-10 19:17:00,54.1,49.8,30.34,SSE,162,1.0,4.0,85,0.00,,,0.00,0.0,meteohub,2013-01-11 00:17:00,
2013-01-10 19:22:00,54.0,49.6,30.34,South,178,0.0,3.0,85,0.00,,,0.00,0.0,meteohub,2013-01-11 00:22:00,
2013-01-10 19:27:00,54.0,49.6,30.35,SSE,158,0.0,4.0,85,0.00,,,0.00,0.0,meteohub,2013-01-11 00:27:00,
2013-01-10 19:32:00,54.0,49.6,30.34,SSE,161,0.0,4.0,85,0.00,,,0.00,0.0,meteohub,2013-01-11 00:32:00,
2013-01-10 19:37:00,53.8,49.6,30.34,SSE,160,2.0,4.0,86,0.00,,,0.00,0.0,meteohub,2013-01-11 00:37:00,
2013-01-10 19:42:00,54.0,49.6,30.34,ESE,115,0.0,2.0,85,0.00,,,0.00,0.0,meteohub,2013-01-11 00:42:00,
2013-01-10 19:47:00,53.8,49.6,30.33,ESE,115,2.0,2.0,86,0.00,,,0.00,0.0,meteohub,2013-01-11 00:47:00,
2013-01-10 19:52:00,53.8,49.6,30.33,ESE,115,2.0,2.0,86,0.00,,,0.00,0.0,meteohub,2013-01-11 00:52:00,
2013-01-10 19:57:00,53.8,49.6,30.33,South,180,1.0,2.0,86,0.00,,,0.00,0.0,meteohub,2013-01-11 00:57:00,
2013-01-10 20:02:00,53.8,49.6,30.33,ESE,117,1.0,3.0,86,0.00,,,0.00,0.0,meteohub,2013-01-11 01:02:00,
2013-01-10 20:07:00,53.6,49.5,30.33,East,89,0.0,4.0,86,0.00,,,0.00,0.0,meteohub,2013-01-11 01:07:00,
2013-01-10 20:12:00,53.4,49.3,30.33,ESE,113,0.0,4.0,86,0.00,,,0.00,0.0,meteohub,2013-01-11 01:12:00,
2013-01-10 20:17:00,53.4,49.3,30.32,SW,224,0.0,4.0,86,0.00,,,0.00,0.0,meteohub,2013-01-11 01:17:00,
2013-01-10 20:22:00,53.4,49.3,30.32,ESE,117,0.0,7.0,86,0.00,,,0.00,0.0,meteohub,2013-01-11 01:22:00,
2013-01-10 20:27:00,53.4,49.3,30.32,SE,134,1.0,7.0,86,0.00,,,0.00,0.0,meteohub,2013-01-11 01:27:00,
2013-01-10 20:32:00,53.4,49.3,30.32,SE,129,0.0,7.0,86,0.00,,,0.00,0.0,meteohub,2013-01-11 01:32:00,
2013-01-10 20:37:00,53.4,49.3,30.32,SSW,193,2.0,3.0,86,0.00,,,0.00,0.0,meteohub,2013-01-11 01:37:00,
2013-01-10 20:42:00,53.2,49.5,30.32,SSE,150,0.0,4.0,87,0.00,,,0.00,0.0,meteohub,2013-01-11 01:42:00,
2013-01-10 20:47:00,53.2,49.5,30.32,SSW,195,0.0,4.0,87,0.00,,,0.00,0.0,meteohub,2013-01-11 01:47:00,
2013-01-10 20:52:00,53.2,49.5,30.32,SW,221,0.0,4.0,87,0.00,,,0.00,0.0,meteohub,2013-01-11 01:52:00,
2013-01-10 20:57:00,53.2,49.5,30.32,WSW,250,0.0,4.0,87,0.00,,,0.00,0.0,meteohub,2013-01-11 01:57:00,
2013-01-10 21:02:00,53.2,49.5,30.32,SSW,193,0.0,9.0,87,0.00,,,0.00,0.0,meteohub,2013-01-11 02:02:00,
2013-01-10 21:07:00,53.2,49.5,30.32,SE,144,2.0,9.0,87,0.00,,,0.00,0.0,meteohub,2013-01-11 02:07:00,
2013-01-10 21:12:00,53.2,49.5,30.32,SSE,150,0.0,7.0,87,0.00,,,0.00,0.0,meteohub,2013-01-11 02:12:00,
2013-01-10 21:17:00,53.2,49.5,30.31,East,101,2.0,8.0,87,0.00,,,0.00,0.0,meteohub,2013-01-11 02:17:00,
2013-01-10 21:22:00,53.2,49.1,30.32,East,96,1.0,8.0,86,0.00,,,0.00,0.0,meteohub,2013-01-11 02:22:00,
2013-01-10 21:27:00,53.2,49.1,30.32,NW,315,0.0,8.0,86,0.00,,,0.00,0.0,meteohub,2013-01-11 02:27:00,
2013-01-10 21:32:00,53.2,49.5,30.31,ESE,115,0.0,4.0,87,0.00,,,0.00,0.0,meteohub,2013-01-11 02:32:00,
2013-01-10 21:37:00,53.1,49.3,30.31,SE,145,0.0,4.0,87,0.00,,,0.00,0.0,meteohub,2013-01-11 02:37:00,
2013-01-10 21:43:00,52.9,49.5,30.31,North,355,2.0,4.0,88,0.00,,,0.00,0.0,meteohub,2013-01-11 02:43:00,
2013-01-10 21:48:00,52.5,49.5,30.30,ENE,76,0.0,4.0,89,0.00,,,0.00,0.0,meteohub,2013-01-11 02:48:00,
2013-01-10 21:53:00,51.8,49.3,30.30,South,177,0.0,4.0,91,0.00,,,0.00,0.0,meteohub,2013-01-11 02:53:00,
2013-01-10 21:58:00,51.4,49.5,30.30,SW,226,0.0,4.0,93,0.00,,,0.00,0.0,meteohub,2013-01-11 02:58:00,
2013-01-10 22:03:00,51.3,49.3,30.30,South,184,0.0,3.0,93,0.01,,,0.01,0.0,meteohub,2013-01-11 03:03:00,
2013-01-10 22:08:00,51.1,49.5,30.30,SW,215,0.0,3.0,94,0.01,,,0.01,0.0,meteohub,2013-01-11 03:08:00,
2013-01-10 22:13:00,50.9,49.3,30.29,SSW,207,1.0,4.0,94,0.01,,,0.01,0.0,meteohub,2013-01-11 03:13:00,
2013-01-10 22:18:00,50.7,49.3,30.30,West,276,1.0,4.0,95,0.01,,,0.01,0.0,meteohub,2013-01-11 03:18:00,
2013-01-10 22:23:00,50.5,49.1,30.29,South,185,1.0,4.0,95,0.01,,,0.01,0.0,meteohub,2013-01-11 03:23:00,
2013-01-10 22:28:00,50.5,49.1,30.30,South,172,0.0,4.0,95,0.01,,,0.01,0.0,meteohub,2013-01-11 03:28:00,
2013-01-10 22:33:00,50.5,49.1,30.29,SSW,206,0.0,4.0,95,0.01,,,0.01,0.0,meteohub,2013-01-11 03:33:00,
2013-01-10 22:39:00,50.5,49.1,30.29,SE,130,0.0,4.0,95,0.02,,,0.02,0.0,meteohub,2013-01-11 03:39:00,
2013-01-10 22:44:00,50.5,49.1,30.28,South,169,1.0,4.0,95,0.02,,,0.02,0.0,meteohub,2013-01-11 03:44:00,
2013-01-10 22:49:00,50.5,49.5,30.28,SW,235,1.0,4.0,96,0.02,,,0.02,0.0,meteohub,2013-01-11 03:49:00,
2013-01-10 22:54:00,50.5,49.5,30.28,WSW,245,0.0,4.0,96,0.02,,,0.02,0.0,meteohub,2013-01-11 03:54:00,
2013-01-10 22:59:00,50.7,49.6,30.27,SSE,165,0.0,4.0,96,0.02,,,0.02,0.0,meteohub,2013-01-11 03:59:00,
2013-01-10 23:04:00,50.7,49.6,30.27,SSE,158,2.0,4.0,96,0.02,,,0.03,0.0,meteohub,2013-01-11 04:04:00,
2013-01-10 23:09:00,50.7,49.6,30.27,SW,234,0.0,4.0,96,0.02,,,0.03,0.0,meteohub,2013-01-11 04:09:00,
2013-01-10 23:14:00,50.7,49.6,30.27,South,184,1.0,5.0,96,0.05,,,0.06,0.0,meteohub,2013-01-11 04:14:00,
2013-01-10 23:19:00,51.1,50.0,30.27,SE,144,1.0,5.0,96,0.07,,,0.08,0.0,meteohub,2013-01-11 04:19:00,
2013-01-10 23:24:00,51.1,50.2,30.27,WSW,240,1.0,5.0,97,0.10,,,0.11,0.0,meteohub,2013-01-11 04:24:00,
2013-01-10 23:29:00,51.1,50.2,30.27,SW,229,2.0,7.0,97,0.11,,,0.12,0.0,meteohub,2013-01-11 04:29:00,
2013-01-10 23:34:00,51.1,50.2,30.27,SSE,153,3.0,7.0,97,0.11,,,0.13,0.0,meteohub,2013-01-11 04:34:00,
2013-01-10 23:39:00,50.9,50.0,30.27,SW,232,0.0,7.0,97,0.13,,,0.15,0.0,meteohub,2013-01-11 04:39:00,
2013-01-10 23:44:00,50.7,49.8,30.26,SSE,165,0.0,6.0,97,0.13,,,0.15,0.0,meteohub,2013-01-11 04:44:00,
2013-01-10 23:49:00,50.7,49.8,30.26,ESE,121,1.0,9.0,97,0.14,,,0.16,0.0,meteohub,2013-01-11 04:49:00,
2013-01-10 23:54:00,50.7,49.8,30.25,South,180,0.0,9.0,97,0.14,,,0.16,0.0,meteohub,2013-01-11 04:54:00,
2013-01-10 23:59:00,50.7,49.8,30.25,SW,232,0.0,9.0,97,0.15,,,0.18,0.0,meteohub,2013-01-11 04:59:00,